����������;��������(kVARh)
2015-08-31 00:00;16,3
2015-08-31 00:15;15,3
2015-08-31 00:30;14,5
2015-08-31 00:45;6,95
2015-08-31 01:00;0,45
2015-08-31 01:15;0,1
2015-08-31 01:30;0
2015-08-31 01:45;0
2015-08-31 02:00;0
2015-08-31 02:15;0,05
2015-08-31 02:30;0,05
2015-08-31 02:45;0
2015-08-31 03:00;0,25
2015-08-31 03:15;0,05
2015-08-31 03:30;0,05
2015-08-31 03:45;0,05
2015-08-31 04:00;0,05
2015-08-31 04:15;1,4
2015-08-31 04:30;3,4
2015-08-31 04:45;3,3
2015-08-31 05:00;3,85
2015-08-31 05:15;3,35
2015-08-31 05:30;3,45
2015-08-31 05:45;3,1
2015-08-31 06:00;3
2015-08-31 06:15;8,4
2015-08-31 06:30;10,7
2015-08-31 06:45;10,65
2015-08-31 07:00;10,45
2015-08-31 07:15;9,75
2015-08-31 07:30;9,7
2015-08-31 07:45;27,45
2015-08-31 08:00;44,4
2015-08-31 08:15;36,8
2015-08-31 08:30;32,5
2015-08-31 08:45;24,9
2015-08-31 09:00;23
2015-08-31 09:15;28,35
2015-08-31 09:30;27,95
2015-08-31 09:45;33,4
2015-08-31 10:00;32,65
2015-08-31 10:15;27,6
2015-08-31 10:30;27,25
2015-08-31 10:45;28,1
2015-08-31 11:00;36,95
2015-08-31 11:15;34,3
2015-08-31 11:30;34
2015-08-31 11:45;38,25
2015-08-31 12:00;40
2015-08-31 12:15;45,4
2015-08-31 12:30;49,75
2015-08-31 12:45;45,85
2015-08-31 13:00;52,75
2015-08-31 13:15;48,55
2015-08-31 13:30;45,55
2015-08-31 13:45;52,05
2015-08-31 14:00;47,45
2015-08-31 14:15;43,55
2015-08-31 14:30;44,3
2015-08-31 14:45;44,55
2015-08-31 15:00;45,55
2015-08-31 15:15;41
2015-08-31 15:30;37,8
2015-08-31 15:45;40,5
2015-08-31 16:00;40,8
2015-08-31 16:15;36,3
2015-08-31 16:30;33,15
2015-08-31 16:45;33,9
2015-08-31 17:00;31,65
2015-08-31 17:15;29,8
2015-08-31 17:30;24,85
2015-08-31 17:45;24
2015-08-31 18:00;39,9
2015-08-31 18:15;33,55
2015-08-31 18:30;31,2
2015-08-31 18:45;22,45
2015-08-31 19:00;17,7
2015-08-31 19:15;16,75
2015-08-31 19:30;19,75
2015-08-31 19:45;19,65
2015-08-31 20:00;18,55
2015-08-31 20:15;12,5
2015-08-31 20:30;14
2015-08-31 20:45;6,7
2015-08-31 21:00;7,3
2015-08-31 21:15;3,45
2015-08-31 21:30;7,1
2015-08-31 21:45;8,25
2015-08-31 22:00;4,65
2015-08-31 22:15;0,3
2015-08-31 22:30;0
2015-08-31 22:45;0
2015-08-31 23:00;0,4
2015-08-31 23:15;2,7
2015-08-31 23:30;0
2015-08-31 23:45;0
2015-09-01 00:00;0,2
2015-09-01 00:15;0
2015-09-01 00:30;0
2015-09-01 00:45;0
2015-09-01 01:00;0
2015-09-01 01:15;0
2015-09-01 01:30;0,05
2015-09-01 01:45;0
2015-09-01 02:00;0
2015-09-01 02:15;0,05
2015-09-01 02:30;0
2015-09-01 02:45;0
2015-09-01 03:00;0,15
2015-09-01 03:15;0
2015-09-01 03:30;0
2015-09-01 03:45;0,65
2015-09-01 04:00;1,35
2015-09-01 04:15;1,4
2015-09-01 04:30;0
2015-09-01 04:45;0,15
2015-09-01 05:00;0,1
2015-09-01 05:15;0
2015-09-01 05:30;0
2015-09-01 05:45;0
2015-09-01 06:00;0
2015-09-01 06:15;0
2015-09-01 06:30;0,05
2015-09-01 06:45;0,2
2015-09-01 07:00;0
2015-09-01 07:15;0,15
2015-09-01 07:30;0,35
2015-09-01 07:45;20,65
2015-09-01 08:00;32,25
2015-09-01 08:15;35,15
2015-09-01 08:30;29,3
2015-09-01 08:45;25,65
2015-09-01 09:00;33,6
2015-09-01 09:15;28,8
2015-09-01 09:30;37,3
2015-09-01 09:45;34,45
2015-09-01 10:00;34,85
2015-09-01 10:15;33,25
2015-09-01 10:30;30,6
2015-09-01 10:45;29,65
2015-09-01 11:00;32,8
2015-09-01 11:15;31,2
2015-09-01 11:30;39,7
2015-09-01 11:45;43,15
2015-09-01 12:00;49,2
2015-09-01 12:15;47,5
2015-09-01 12:30;46,85
2015-09-01 12:45;43,3
2015-09-01 13:00;40,3
2015-09-01 13:15;40,25
2015-09-01 13:30;37,5
2015-09-01 13:45;42,3
2015-09-01 14:00;36,95
2015-09-01 14:15;46,2
2015-09-01 14:30;50,8
2015-09-01 14:45;49,9
2015-09-01 15:00;44,95
2015-09-01 15:15;34,45
2015-09-01 15:30;36
2015-09-01 15:45;35,35
2015-09-01 16:00;30,8
2015-09-01 16:15;25,1
2015-09-01 16:30;22,15
2015-09-01 16:45;22,65
2015-09-01 17:00;20,85
2015-09-01 17:15;20,6
2015-09-01 17:30;21,35
2015-09-01 17:45;17,3
2015-09-01 18:00;17,15
2015-09-01 18:15;18,7
2015-09-01 18:30;19,45
2015-09-01 18:45;20,1
2015-09-01 19:00;19
2015-09-01 19:15;18,3
2015-09-01 19:30;18,25
2015-09-01 19:45;20,15
2015-09-01 20:00;17,25
2015-09-01 20:15;12,15
2015-09-01 20:30;12,25
2015-09-01 20:45;2,3
2015-09-01 21:00;1,8
2015-09-01 21:15;0,75
2015-09-01 21:30;0,95
2015-09-01 21:45;4,15
2015-09-01 22:00;4,95
2015-09-01 22:15;4,15
2015-09-01 22:30;1,55
2015-09-01 22:45;0,25
2015-09-01 23:00;0
2015-09-01 23:15;0,2
2015-09-01 23:30;0,2
2015-09-01 23:45;0,7
2015-09-02 00:00;0,05
2015-09-02 00:15;0
2015-09-02 00:30;0
2015-09-02 00:45;0
2015-09-02 01:00;0
2015-09-02 01:15;0
2015-09-02 01:30;0
2015-09-02 01:45;0
2015-09-02 02:00;0
2015-09-02 02:15;0
2015-09-02 02:30;0
2015-09-02 02:45;0
2015-09-02 03:00;0
2015-09-02 03:15;0
2015-09-02 03:30;0
2015-09-02 03:45;0
2015-09-02 04:00;0
2015-09-02 04:15;0
2015-09-02 04:30;0
2015-09-02 04:45;0
2015-09-02 05:00;0
2015-09-02 05:15;0
2015-09-02 05:30;0
2015-09-02 05:45;0
2015-09-02 06:00;0
2015-09-02 06:15;0
2015-09-02 06:30;0
2015-09-02 06:45;0
2015-09-02 07:00;0
2015-09-02 07:15;0
2015-09-02 07:30;0
2015-09-02 07:45;14,55
2015-09-02 08:00;16,05
2015-09-02 08:15;18,5
2015-09-02 08:30;15,75
2015-09-02 08:45;21,5
2015-09-02 09:00;21,25
2015-09-02 09:15;29,6
2015-09-02 09:30;27,1
2015-09-02 09:45;36,05
2015-09-02 10:00;38,15
2015-09-02 10:15;38,05
2015-09-02 10:30;37,4
2015-09-02 10:45;36,7
2015-09-02 11:00;41,2
2015-09-02 11:15;34,45
2015-09-02 11:30;41,65
2015-09-02 11:45;49,85
2015-09-02 12:00;60,05
2015-09-02 12:15;58,3
2015-09-02 12:30;45,75
2015-09-02 12:45;41,35
2015-09-02 13:00;37,1
2015-09-02 13:15;35,85
2015-09-02 13:30;33,15
2015-09-02 13:45;34,6
2015-09-02 14:00;43,15
2015-09-02 14:15;40,75
2015-09-02 14:30;37,4
2015-09-02 14:45;47,55
2015-09-02 15:00;49,3
2015-09-02 15:15;46,15
2015-09-02 15:30;33,8
2015-09-02 15:45;31,75
2015-09-02 16:00;31,35
2015-09-02 16:15;34,35
2015-09-02 16:30;30,35
2015-09-02 16:45;27,45
2015-09-02 17:00;29,55
2015-09-02 17:15;26,8
2015-09-02 17:30;27,65
2015-09-02 17:45;21,8
2015-09-02 18:00;17,85
2015-09-02 18:15;18,05
2015-09-02 18:30;17,65
2015-09-02 18:45;17,85
2015-09-02 19:00;15,35
2015-09-02 19:15;13,6
2015-09-02 19:30;13,3
2015-09-02 19:45;10,9
2015-09-02 20:00;4,75
2015-09-02 20:15;4,25
2015-09-02 20:30;3,45
2015-09-02 20:45;0,1
2015-09-02 21:00;0
2015-09-02 21:15;0
2015-09-02 21:30;0
2015-09-02 21:45;0
2015-09-02 22:00;0,15
2015-09-02 22:15;0
2015-09-02 22:30;0
2015-09-02 22:45;0
2015-09-02 23:00;0
2015-09-02 23:15;0
2015-09-02 23:30;0
2015-09-02 23:45;0
2015-09-03 00:00;1,3
2015-09-03 00:15;0
2015-09-03 00:30;0,3
2015-09-03 00:45;0
2015-09-03 01:00;0
2015-09-03 01:15;0
2015-09-03 01:30;0
2015-09-03 01:45;0,1
2015-09-03 02:00;0
2015-09-03 02:15;0
2015-09-03 02:30;0
2015-09-03 02:45;0
2015-09-03 03:00;0
2015-09-03 03:15;0
2015-09-03 03:30;0
2015-09-03 03:45;0
2015-09-03 04:00;0
2015-09-03 04:15;0
2015-09-03 04:30;0
2015-09-03 04:45;0
2015-09-03 05:00;0
2015-09-03 05:15;0
2015-09-03 05:30;0
2015-09-03 05:45;0
2015-09-03 06:00;0
2015-09-03 06:15;0
2015-09-03 06:30;0
2015-09-03 06:45;0
2015-09-03 07:00;0
2015-09-03 07:15;0
2015-09-03 07:30;0
2015-09-03 07:45;13,75
2015-09-03 08:00;16,15
2015-09-03 08:15;18,75
2015-09-03 08:30;20,35
2015-09-03 08:45;21,2
2015-09-03 09:00;26,75
2015-09-03 09:15;46,35
2015-09-03 09:30;47,25
2015-09-03 09:45;44,85
2015-09-03 10:00;49,35
2015-09-03 10:15;53,1
2015-09-03 10:30;52,3
2015-09-03 10:45;58,95
2015-09-03 11:00;56,95
2015-09-03 11:15;46,35
2015-09-03 11:30;49,85
2015-09-03 11:45;56,25
2015-09-03 12:00;73,15
2015-09-03 12:15;66,6
2015-09-03 12:30;62,25
2015-09-03 12:45;63,4
2015-09-03 13:00;58,25
2015-09-03 13:15;63,05
2015-09-03 13:30;59,5
2015-09-03 13:45;67,9
2015-09-03 14:00;71,3
2015-09-03 14:15;67,3
2015-09-03 14:30;73,7
2015-09-03 14:45;90,9
2015-09-03 15:00;99,7
2015-09-03 15:15;97,2
2015-09-03 15:30;86,6
2015-09-03 15:45;81,9
2015-09-03 16:00;75,5
2015-09-03 16:15;69,45
2015-09-03 16:30;68,5
2015-09-03 16:45;65,8
2015-09-03 17:00;67,9
2015-09-03 17:15;59,45
2015-09-03 17:30;52,8
2015-09-03 17:45;38,8
2015-09-03 18:00;36,9
2015-09-03 18:15;34,65
2015-09-03 18:30;35,3
2015-09-03 18:45;31,45
2015-09-03 19:00;31,95
2015-09-03 19:15;29,2
2015-09-03 19:30;29,15
2015-09-03 19:45;27,25
2015-09-03 20:00;24,65
2015-09-03 20:15;14,6
2015-09-03 20:30;13,8
2015-09-03 20:45;6,15
2015-09-03 21:00;3,05
2015-09-03 21:15;1,4
2015-09-03 21:30;2,5
2015-09-03 21:45;2,6
2015-09-03 22:00;7,3
2015-09-03 22:15;6,8
2015-09-03 22:30;8,3
2015-09-03 22:45;3,85
2015-09-03 23:00;6,85
2015-09-03 23:15;6,2
2015-09-03 23:30;6,75
2015-09-03 23:45;9,15
2015-09-04 00:00;8,5
2015-09-04 00:15;7,6
2015-09-04 00:30;8,05
2015-09-04 00:45;9,05
2015-09-04 01:00;3,5
2015-09-04 01:15;3,95
2015-09-04 01:30;4,05
2015-09-04 01:45;4,45
2015-09-04 02:00;5,05
2015-09-04 02:15;0,5
2015-09-04 02:30;0,8
2015-09-04 02:45;0,8
2015-09-04 03:00;2,7
2015-09-04 03:15;3,3
2015-09-04 03:30;3,7
2015-09-04 03:45;4,4
2015-09-04 04:00;2,75
2015-09-04 04:15;2,8
2015-09-04 04:30;3,2
2015-09-04 04:45;3,9
2015-09-04 05:00;1,45
2015-09-04 05:15;2,45
2015-09-04 05:30;6,45
2015-09-04 05:45;4,7
2015-09-04 06:00;3,45
2015-09-04 06:15;11,7
2015-09-04 06:30;9,3
2015-09-04 06:45;8,55
2015-09-04 07:00;10,3
2015-09-04 07:15;10,75
2015-09-04 07:30;8,3
2015-09-04 07:45;33,1
2015-09-04 08:00;38,45
2015-09-04 08:15;31,75
2015-09-04 08:30;31,95
2015-09-04 08:45;44,5
2015-09-04 09:00;41,1
2015-09-04 09:15;38,95
2015-09-04 09:30;41,2
2015-09-04 09:45;41,95
2015-09-04 10:00;43,3
2015-09-04 10:15;52
2015-09-04 10:30;53,9
2015-09-04 10:45;52
2015-09-04 11:00;56,5
2015-09-04 11:15;59,7
2015-09-04 11:30;60,9
2015-09-04 11:45;63,4
2015-09-04 12:00;61,55
2015-09-04 12:15;61,2
2015-09-04 12:30;58,75
2015-09-04 12:45;60,35
2015-09-04 13:00;56,75
2015-09-04 13:15;60,6
2015-09-04 13:30;59,45
2015-09-04 13:45;59,15
2015-09-04 14:00;57,95
2015-09-04 14:15;61,05
2015-09-04 14:30;61,7
2015-09-04 14:45;60,6
2015-09-04 15:00;63,4
2015-09-04 15:15;53,85
2015-09-04 15:30;52,4
2015-09-04 15:45;49,35
2015-09-04 16:00;50,6
2015-09-04 16:15;47,05
2015-09-04 16:30;49,6
2015-09-04 16:45;45,2
2015-09-04 17:00;39,7
2015-09-04 17:15;33
2015-09-04 17:30;28,55
2015-09-04 17:45;26,6
2015-09-04 18:00;24,75
2015-09-04 18:15;22,4
2015-09-04 18:30;21,7
2015-09-04 18:45;22,85
2015-09-04 19:00;22,6
2015-09-04 19:15;19,85
2015-09-04 19:30;16,85
2015-09-04 19:45;14,5
2015-09-04 20:00;13,5
2015-09-04 20:15;13,5
2015-09-04 20:30;14,7
2015-09-04 20:45;4,05
2015-09-04 21:00;3
2015-09-04 21:15;0,65
2015-09-04 21:30;1,55
2015-09-04 21:45;2,15
2015-09-04 22:00;1,6
2015-09-04 22:15;1,15
2015-09-04 22:30;3,05
2015-09-04 22:45;3,6
2015-09-04 23:00;3,65
2015-09-04 23:15;1,65
2015-09-04 23:30;1,05
2015-09-04 23:45;2,5
2015-09-05 00:00;2,9
2015-09-05 00:15;0,85
2015-09-05 00:30;3,25
2015-09-05 00:45;3,4
2015-09-05 01:00;0,25
2015-09-05 01:15;0,1
2015-09-05 01:30;0
2015-09-05 01:45;0
2015-09-05 02:00;0,15
2015-09-05 02:15;0,1
2015-09-05 02:30;0,3
2015-09-05 02:45;0,05
2015-09-05 03:00;0
2015-09-05 03:15;0
2015-09-05 03:30;0
2015-09-05 03:45;0
2015-09-05 04:00;0
2015-09-05 04:15;0
2015-09-05 04:30;0
2015-09-05 04:45;0
2015-09-05 05:00;0
2015-09-05 05:15;0
2015-09-05 05:30;0
2015-09-05 05:45;0
2015-09-05 06:00;0
2015-09-05 06:15;0
2015-09-05 06:30;0
2015-09-05 06:45;0
2015-09-05 07:00;0
2015-09-05 07:15;0
2015-09-05 07:30;0
2015-09-05 07:45;19,4
2015-09-05 08:00;22
2015-09-05 08:15;18,1
2015-09-05 08:30;16,8
2015-09-05 08:45;15,5
2015-09-05 09:00;14,85
2015-09-05 09:15;13,55
2015-09-05 09:30;13,5
2015-09-05 09:45;2
2015-09-05 10:00;2,4
2015-09-05 10:15;2,1
2015-09-05 10:30;0,95
2015-09-05 10:45;4,95
2015-09-05 11:00;6,75
2015-09-05 11:15;6,4
2015-09-05 11:30;5,15
2015-09-05 11:45;5,8
2015-09-05 12:00;5,15
2015-09-05 12:15;3,8
2015-09-05 12:30;4,15
2015-09-05 12:45;5,1
2015-09-05 13:00;13,65
2015-09-05 13:15;11,75
2015-09-05 13:30;10,4
2015-09-05 13:45;10,85
2015-09-05 14:00;11,4
2015-09-05 14:15;11,05
2015-09-05 14:30;11,5
2015-09-05 14:45;10,65
2015-09-05 15:00;12,2
2015-09-05 15:15;12,15
2015-09-05 15:30;12,1
2015-09-05 15:45;14,3
2015-09-05 16:00;12,85
2015-09-05 16:15;15,3
2015-09-05 16:30;14,8
2015-09-05 16:45;16,4
2015-09-05 17:00;17
2015-09-05 17:15;15,75
2015-09-05 17:30;17,85
2015-09-05 17:45;16,2
2015-09-05 18:00;16,15
2015-09-05 18:15;16
2015-09-05 18:30;16,75
2015-09-05 18:45;15,1
2015-09-05 19:00;14,8
2015-09-05 19:15;10,85
2015-09-05 19:30;10,85
2015-09-05 19:45;11,85
2015-09-05 20:00;9,5
2015-09-05 20:15;9,85
2015-09-05 20:30;8,75
2015-09-05 20:45;5,2
2015-09-05 21:00;7,7
2015-09-05 21:15;8,5
2015-09-05 21:30;6,35
2015-09-05 21:45;3,95
2015-09-05 22:00;2,25
2015-09-05 22:15;2,9
2015-09-05 22:30;4,8
2015-09-05 22:45;2,3
2015-09-05 23:00;1,8
2015-09-05 23:15;4,1
2015-09-05 23:30;4,35
2015-09-05 23:45;5,95
2015-09-06 00:00;8,05
2015-09-06 00:15;5,25
2015-09-06 00:30;7,4
2015-09-06 00:45;7,4
2015-09-06 01:00;6,55
2015-09-06 01:15;8,9
2015-09-06 01:30;10,6
2015-09-06 01:45;13,9
2015-09-06 02:00;14,2
2015-09-06 02:15;15,3
2015-09-06 02:30;3,5
2015-09-06 02:45;0
2015-09-06 03:00;0
2015-09-06 03:15;0
2015-09-06 03:30;0
2015-09-06 03:45;0
2015-09-06 04:00;0
2015-09-06 04:15;0
2015-09-06 04:30;0
2015-09-06 04:45;0
2015-09-06 05:00;0
2015-09-06 05:15;0
2015-09-06 05:30;0
2015-09-06 05:45;0
2015-09-06 06:00;0
2015-09-06 06:15;1,6
2015-09-06 06:30;2,1
2015-09-06 06:45;2,2
2015-09-06 07:00;0,35
2015-09-06 07:15;0,25
2015-09-06 07:30;0,5
2015-09-06 07:45;0,25
2015-09-06 08:00;0,1
2015-09-06 08:15;0,05
2015-09-06 08:30;0
2015-09-06 08:45;0
2015-09-06 09:00;0,1
2015-09-06 09:15;2
2015-09-06 09:30;3,25
2015-09-06 09:45;1,65
2015-09-06 10:00;4,1
2015-09-06 10:15;6,9
2015-09-06 10:30;6,6
2015-09-06 10:45;6
2015-09-06 11:00;6,4
2015-09-06 11:15;8,2
2015-09-06 11:30;6,2
2015-09-06 11:45;5,4
2015-09-06 12:00;6,3
2015-09-06 12:15;5,4
2015-09-06 12:30;0,45
2015-09-06 12:45;0,15
2015-09-06 13:00;0,05
2015-09-06 13:15;0,05
2015-09-06 13:30;0
2015-09-06 13:45;0,05
2015-09-06 14:00;0
2015-09-06 14:15;0
2015-09-06 14:30;0,05
2015-09-06 14:45;0
2015-09-06 15:00;0,05
2015-09-06 15:15;0
2015-09-06 15:30;0
2015-09-06 15:45;0
2015-09-06 16:00;1,9
2015-09-06 16:15;5,6
2015-09-06 16:30;3,8
2015-09-06 16:45;3,55
2015-09-06 17:00;4,9
2015-09-06 17:15;5,4
2015-09-06 17:30;4,95
2015-09-06 17:45;3,35
2015-09-06 18:00;3,45
2015-09-06 18:15;2,1
2015-09-06 18:30;2,8
2015-09-06 18:45;0,85
2015-09-06 19:00;1,45
2015-09-06 19:15;2,15
2015-09-06 19:30;2,2
2015-09-06 19:45;2,2
2015-09-06 20:00;2,5
2015-09-06 20:15;1,9
2015-09-06 20:30;2,2
2015-09-06 20:45;1,95
2015-09-06 21:00;2,45
2015-09-06 21:15;1,5
2015-09-06 21:30;1,95
2015-09-06 21:45;1,9
2015-09-06 22:00;1,25
2015-09-06 22:15;2,75
2015-09-06 22:30;4,6
2015-09-06 22:45;5,45
2015-09-06 23:00;2
2015-09-06 23:15;3,1
2015-09-06 23:30;3,5
2015-09-06 23:45;4,25

